Torna al catalogo

COSMOS 886 DEB

AttivoUNKNOWN
NORAD 9820·DEBRIS·🇷🇺 Russia

Lanciato Dec 27, 1976 da Baikonur Cosmodrome

Loading…

Prossimi Passaggi (prossime 24 ore)

TLE

AggiornatoSource: Space-Track

Epoca: Sep 14, 2026, 08:49 UTC

1 09820U 76126AG  26257.36804463 -.00000085  00000-0 -16852-3 0  9997
2 09820  65.7998  31.3140 0868718 119.9975 279.0579 11.92829207 35015

Traccia COSMOS 886 DEB in tempo reale con AllMySat

Download on the App Store